Location: Hurstbourne Priors
(51.2000°N, 1.3667°W)
Time: 21:02:58
(UTC+00:00)

Altair - Pass Details

Date: 15 April 2021
Orbit: 1501 x 1683 km, 47.2° (Epoch: 13 May)

Event Time Altitude Azimuth Distance (km) Brightness Sun altitude
Rises 09:05:54 0° 252° (WSW) 4,813 9.8 34.8°
Reaches altitude 10° 09:09:04 10° 251° (WSW) 3,804 9.4 35.3°
Maximum altitude 09:18:34 68° 171° (S) 1,649 8.7 36.5°
Drops below altitude 10° 09:27:45 10° 91° (E) 3,679 10.3 37.7°
Sets 09:30:45 0° 89° (E) 4,649 10.6 38.0°
